Location: ????
(33.1659°N, 35.6604°E)
Time: 16:15:24
(UTC+00:00)

YAOGAN 1 - Pass Details

Date: 20 September 2019
Orbit: 619 x 621 km, 98.0° (Epoch: 18 October)

Event Time Altitude Azimuth Distance (km) Brightness Sun altitude
Rises 16:41:45 0° 185° (S) 2,881 5.9 -14.2°
Reaches altitude 10° 16:44:04 10° 194° (SSW) 1,979 5.2 -14.7°
Maximum altitude 16:48:02 36° 262° (W) 981 4.2 -15.5°
Drops below altitude 10° 16:52:02 10° 329° (NNW) 1,991 5.8 -16.3°
Sets 16:54:23 0° 338° (NNW) 2,900 6.5 -16.8°
